SHIJIAN 6 01A (SJ-6 01A)

导读

SHIJIAN 6 01A(实践六号01A)是中国研制发射的科学试验卫星,于2004年9月8日在酒泉卫星发射中心由长征二号丁运载火箭成功发射,进入预定太阳同步轨道。作为实践六号卫星系列的首发星,它主要承担空间环境探测任务,开展空间物理环境参数测量与航天新技术试验,为中国空间科学研究和新一代航天器工程设计积累了关键数据,推动了中国空间探测技术的发展,服务于空间环境预报和航天应用基础研究。

基本信息
目录编号:
28413
目录名称:
SHIJIAN 6 01A (SJ-6 01A)
国际标识:
2004-035A
轨道中心:
EARTH
卫星名称:
SHIJIAN 6 01A (SJ-6 01A)
卫星全名:
--
卫星状态:
在轨 (已飞行8038 天)
发射日期:
2004-09-08 UTC
国别 :
中国 (CN)
星等 :
--
该卫星已列入 空间交会检测服务 Space Conjunction Data Service (SCDS) ,当前飞行风险评估等级: 无高风险
轨道信息
数据来源 国际轨道数据
星历时间: 2026-09-10T23:07:43+0800
15小时前
查看轨道信息
半长轴: 6886.867km
偏心率: 0.0005763
轨道倾角: 97.582°
近地点辐角 182.419°
升交点赤经 281.009°
平近点角 177.702°
近地点: 504.761km
远地点: 512.699km
周期: 94.796分钟
每日圈数: 15.190437
详细信息
使用方式:
暂无
2D轨道图
3D轨道图
轨道高度分析图
轨道倾角分析图
轨道综合分析图
查看轨道综合分析图
与全量物体交会距离演化趋势
与全量物体交会风险概率演化趋势